THORAD AGENA D DEB

Satellite information

Favourite Embed

Satellite Type and Status

DEBRISIN ORBIT

Key statistics

Satellite THORAD AGENA D DEB at a glance.

Uptime

20122

Days in orbit

Revolutions

≈ 13.9

Per day

Orbit

SSO

Sun Synchronous Orbit

Inclination

100.3

Latest

Satellite identification and parameters

Extended collection of information and parameters for THORAD AGENA D DEB.

Object identification

Identified? True

Debris? True

Object name: THORAD AGENA D DEB

International designator: 1970-025SA

Object number (NORAD): 42520

Object ID (CCSDS): 42520

Country: UNITED STATES OF AMERICA (US)

Current information (Y/N): Y

RCS size: SMALL

Orbital parameters

Period: 103.667 minutes

Inclination: 100.3209 deg

SMA: 7310.051 km

Apoapsis: 1002.304 km

Periapsis: 861.529 km

RAAN: 304.1923 deg

Eccentricy: 0.0096288

Argument of periapsis: 77.6576 deg

Mean anomaly: 283.5336 deg

Mean motion: 13.89063526 rev/day

Mean motion (dot): 0.00002244 rev/day2

B* drag term: 0.0018235 1/REarth

Two-line elements (TLE)

Creation date: May 7, 2025, 3:14 a.m.

Reference frame: TEME

Reference center: EARTH

Epoch: May 6, 2025, 6:39 a.m. UTC

TLE line 0: 0 THORAD AGENA D DEB

TLE line 1: 1 42520U 70025SA 25126.27719682 .00002244 00000-0 18235-2 0 9998

TLE line 2: 2 42520 100.3209 304.1923 0096288 77.6576 283.5336 13.89063526570626

Live tracking on map

Real-time ground track for satellite THORAD AGENA D DEB.

In-orbit conjunctions

A list of the most updated potential collisions computed for object THORAD AGENA D DEB.

Target Orbit TCA Probability of collision Miss distance Type
COSMOS 1339 LEO 2025-01-01 23:21:43 0.0001143372 255.0 (m) PAYLOAD
COSMOS 1344 LEO 2024-08-21 14:58:39 0.0004936836 438.0 (m) PAYLOAD

Associated space launch

Meteorological research and development satellite

THORAD AGENA D DEB was lifted into orbit during the mission ‘Thorad SLV-2G Agena D | Nimbus 4’, on board a Thorad SLV-2G Agena D space rocket.

The launch took place on April 8, 1970, 8:17 a.m. from Space Launch Complex 2E.

For more information about the launch, click the button.

Launch to space Thorad SLV-2G Agena D | Nimbus 4
Thorad SLV-2G Agena D | Nimbus 4

Agency: N/A

Status: Launch Successful

Launch date: April 8, 1970, 8:17 a.m. UTC

Rocket: Thorad SLV-2G Agena D

Launch pad: Space Launch Complex 2E

Location: Vandenberg SFB, CA, USA

...

Latest news about this satellite

There are no fresh news available about this satellite. Check back as we update our databases every day.


Newsletter sign-up

Weekly statistics, charts and insights to help you stay on top of the space industry.